Location: Camerons Lookout
(40.9833°S, 175.9333°E)
Time: 18:50:39
(UTC+00:00)

Cosmos 1503 Rocket - Pass Details

Date: 14 January 2026
Orbit: 748 x 786 km, 74.0° (Epoch: 17 February)

Event Time Altitude Azimuth Distance (km) Brightness Sun altitude
Exits shadow 11:25:21 51° 296° (WNW) 998 4.4 -26.2°
Maximum altitude 11:26:25 62° 248° (WSW) 898 4.4 -26.3°
Drops below altitude 10° 11:31:48 10° 167° (SSE) 2,380 7.3 -26.5°
Sets 11:34:15 0° 163° (SSE) 3,314 8.2 -26.6°
